User: anonymous   Login
Location: Unspecified
(0.0000°N, 0.0000°E)
Time: 23:05:31
(UTC+02:00)
Language:

Cosmos 2082 Rocket - Orbit

View from above orbital plane
View from above orbital plane
View from above satellite
View from above satellite

Ground track
Ground track

The orbit data is extracted from the following two-line orbital elements,

1 20625U 90046B   16235.90559809 -.00000111 +00000-0 -32729-4 0  9998
2 20625 070.9994 055.1613 0015168 209.1053 310.0704 14.14606795355390
Epoch (UTC): 22 August 2016 21:44:03
Eccentricity: 0.0015168
inclination: 70.9994°
perigee height: 832 km
apogee height: 854 km
right ascension of ascending node: 55.1613°
argument of perigee: 209.1053°
revolutions per day: 14.14606795
mean anomaly at epoch: 310.0704°
orbit number at epoch: 35539

The dashed part of the orbit path shows where the satellite is in the earth's shadow,  

DLR